Year,Month,Day,Hour,Minute,Value (Times are PST for windgust in km/hr)
2015,06,11,00,00,4.80
2015,06,11,00,01,4.80
2015,06,11,00,02,3.20
2015,06,11,00,03,3.20
2015,06,11,00,04,3.20
2015,06,11,00,05,3.20
2015,06,11,00,06,3.20
2015,06,11,00,07,3.20
2015,06,11,00,08,3.20
2015,06,11,00,09,4.80
2015,06,11,00,10,3.20
2015,06,11,00,11,4.80
2015,06,11,00,12,4.80
2015,06,11,00,13,4.80
2015,06,11,00,14,4.80
2015,06,11,00,15,6.40
2015,06,11,00,16,4.80
2015,06,11,00,17,3.20
2015,06,11,00,18,1.60
2015,06,11,00,19,1.60
2015,06,11,00,23,1.60
2015,06,11,00,24,3.20
2015,06,11,00,25,3.20
2015,06,11,00,26,3.20
2015,06,11,00,27,3.20
2015,06,11,00,28,3.20
2015,06,11,00,29,3.20
2015,06,11,00,30,3.20
2015,06,11,00,31,3.20
2015,06,11,00,32,1.60
2015,06,11,00,33,1.60
2015,06,11,00,36,1.60
2015,06,11,00,37,1.60
2015,06,11,00,38,1.60
2015,06,11,00,39,1.60
2015,06,11,00,40,3.20
2015,06,11,00,41,1.60
2015,06,11,00,42,1.60
2015,06,11,00,43,3.20
2015,06,11,00,44,3.20
2015,06,11,00,45,3.20
2015,06,11,00,46,3.20
2015,06,11,00,47,1.60
2015,06,11,00,48,3.20
2015,06,11,00,49,1.60
2015,06,11,00,50,1.60
2015,06,11,00,51,1.60
2015,06,11,00,52,1.60
2015,06,11,00,53,1.60
2015,06,11,00,54,1.60
2015,06,11,00,55,1.60
2015,06,11,00,56,3.20
2015,06,11,00,57,4.80
2015,06,11,00,58,3.20
2015,06,11,00,59,3.20
2015,06,11,01,00,3.20
2015,06,11,01,01,3.20
2015,06,11,01,02,4.80
2015,06,11,01,03,4.80
2015,06,11,01,04,4.80
2015,06,11,01,05,4.80
2015,06,11,01,06,3.20
2015,06,11,01,07,1.60
2015,06,11,01,08,1.60
2015,06,11,01,11,1.60
2015,06,11,01,12,3.20
2015,06,11,01,13,3.20
2015,06,11,01,14,3.20
2015,06,11,01,15,3.20
2015,06,11,01,16,1.60
2015,06,11,01,17,1.60
2015,06,11,01,18,1.60
2015,06,11,01,20,1.60
2015,06,11,01,21,3.20
2015,06,11,01,22,3.20
2015,06,11,01,23,4.80
2015,06,11,01,24,3.20
2015,06,11,01,25,3.20
2015,06,11,01,26,3.20
2015,06,11,01,27,3.20
2015,06,11,01,28,3.20
2015,06,11,01,29,3.20
2015,06,11,01,30,1.60
2015,06,11,01,31,3.20
2015,06,11,01,32,3.20
2015,06,11,01,33,4.80
2015,06,11,01,34,3.20
2015,06,11,01,35,3.20
2015,06,11,01,36,3.20
2015,06,11,01,37,3.20
2015,06,11,01,38,3.20
2015,06,11,01,41,1.60
2015,06,11,01,42,1.60
2015,06,11,01,43,3.20
2015,06,11,01,44,3.20
2015,06,11,01,45,3.20
2015,06,11,01,46,3.20
2015,06,11,01,47,3.20
2015,06,11,01,48,3.20
2015,06,11,01,49,1.60
2015,06,11,01,50,3.20
2015,06,11,01,51,4.80
2015,06,11,01,52,3.20
2015,06,11,01,53,3.20
2015,06,11,01,54,4.80
2015,06,11,01,55,4.80
2015,06,11,01,56,4.80
2015,06,11,01,57,6.40
2015,06,11,01,58,6.40
2015,06,11,01,59,4.80
2015,06,11,02,00,6.40
2015,06,11,02,01,3.20
2015,06,11,02,02,3.20
2015,06,11,02,03,4.80
2015,06,11,02,04,4.80
2015,06,11,02,05,1.60
2015,06,11,02,06,1.60
2015,06,11,02,07,3.20
2015,06,11,02,09,3.20
2015,06,11,02,10,1.60
2015,06,11,02,11,1.60
2015,06,11,02,12,1.60
2015,06,11,02,13,1.60
2015,06,11,02,14,3.20
2015,06,11,02,15,3.20
2015,06,11,02,16,3.20
2015,06,11,02,17,4.80
2015,06,11,02,18,4.80
2015,06,11,02,19,3.20
2015,06,11,02,20,3.20
2015,06,11,02,21,4.80
2015,06,11,02,22,3.20
2015,06,11,02,23,3.20
2015,06,11,02,24,3.20
2015,06,11,02,25,1.60
2015,06,11,02,26,1.60
2015,06,11,02,27,1.60
2015,06,11,02,28,3.20
2015,06,11,02,29,3.20
2015,06,11,02,30,3.20
2015,06,11,02,31,3.20
2015,06,11,02,32,1.60
2015,06,11,02,34,1.60
2015,06,11,02,35,3.20
2015,06,11,02,36,3.20
2015,06,11,02,37,3.20
2015,06,11,02,38,4.80
2015,06,11,02,39,4.80
2015,06,11,02,40,4.80
2015,06,11,02,41,4.80
2015,06,11,02,42,4.80
2015,06,11,02,43,4.80
2015,06,11,02,44,4.80
2015,06,11,02,45,3.20
2015,06,11,02,46,3.20
2015,06,11,02,47,4.80
2015,06,11,02,48,6.40
2015,06,11,02,49,4.80
2015,06,11,02,50,6.40
2015,06,11,02,51,6.40
2015,06,11,02,52,3.20
2015,06,11,02,53,1.60
2015,06,11,02,54,3.20
2015,06,11,02,55,3.20
2015,06,11,02,56,1.60
2015,06,11,02,57,1.60
2015,06,11,02,58,4.80
2015,06,11,02,59,4.80
2015,06,11,03,00,9.60
2015,06,11,03,01,9.60
2015,06,11,03,02,9.60
2015,06,11,03,03,6.40
2015,06,11,03,04,1.60
2015,06,11,03,05,3.20
2015,06,11,03,06,3.20
2015,06,11,03,07,1.60
2015,06,11,03,08,3.20
2015,06,11,03,10,1.60
2015,06,11,03,11,6.40
2015,06,11,03,12,6.40
2015,06,11,03,13,4.80
2015,06,11,03,14,4.80
2015,06,11,03,15,4.80
2015,06,11,03,16,4.80
2015,06,11,03,17,4.80
2015,06,11,03,18,4.80
2015,06,11,03,19,3.20
2015,06,11,03,20,3.20
2015,06,11,03,21,3.20
2015,06,11,03,23,3.20
2015,06,11,03,24,4.80
2015,06,11,03,25,4.80
2015,06,11,03,26,4.80
2015,06,11,03,27,4.80
2015,06,11,03,28,4.80
2015,06,11,03,29,4.80
2015,06,11,03,30,3.20
2015,06,11,03,31,3.20
2015,06,11,03,32,3.20
2015,06,11,03,33,3.20
2015,06,11,03,34,3.20
2015,06,11,03,35,1.60
2015,06,11,03,36,1.60
2015,06,11,03,37,3.20
2015,06,11,03,38,1.60
2015,06,11,03,39,1.60
2015,06,11,03,41,3.20
2015,06,11,03,42,4.80
2015,06,11,03,43,6.40
2015,06,11,03,44,6.40
2015,06,11,03,45,6.40
2015,06,11,03,46,4.80
2015,06,11,03,47,3.20
2015,06,11,03,48,1.60
2015,06,11,03,49,1.60
2015,06,11,03,50,1.60
2015,06,11,03,59,3.20
2015,06,11,04,00,4.80
2015,06,11,04,01,4.80
2015,06,11,04,02,4.80
2015,06,11,04,03,3.20
2015,06,11,04,04,3.20
2015,06,11,04,05,3.20
2015,06,11,04,06,6.40
2015,06,11,04,07,4.80
2015,06,11,05,02,4.80
2015,06,11,05,03,4.80
2015,06,11,05,04,4.80
2015,06,11,05,05,4.80
2015,06,11,05,06,3.20
2015,06,11,05,07,3.20
2015,06,11,05,08,3.20
2015,06,11,05,09,3.20
2015,06,11,05,10,1.60
2015,06,11,05,11,1.60
2015,06,11,05,12,3.20
2015,06,11,05,13,3.20
2015,06,11,05,14,3.20
2015,06,11,05,15,3.20
2015,06,11,05,16,3.20
2015,06,11,05,17,3.20
2015,06,11,05,18,3.20
2015,06,11,05,19,3.20
2015,06,11,05,20,1.60
2015,06,11,05,21,3.20
2015,06,11,05,22,3.20
2015,06,11,05,23,1.60
2015,06,11,05,24,4.80
2015,06,11,05,25,4.80
2015,06,11,05,26,4.80
2015,06,11,05,27,6.40
2015,06,11,05,28,6.40
2015,06,11,05,29,6.40
2015,06,11,05,30,6.40
2015,06,11,05,31,6.40
2015,06,11,05,32,4.80
2015,06,11,05,33,4.80
2015,06,11,05,34,4.80
2015,06,11,05,35,4.80
2015,06,11,05,36,4.80
2015,06,11,05,37,4.80
2015,06,11,05,38,4.80
2015,06,11,05,39,3.20
2015,06,11,05,40,1.60
2015,06,11,05,43,1.60
2015,06,11,05,44,1.60
2015,06,11,05,45,1.60
2015,06,11,05,46,1.60
2015,06,11,05,47,3.20
2015,06,11,05,48,3.20
2015,06,11,05,49,3.20
2015,06,11,05,50,1.60
2015,06,11,05,51,3.20
2015,06,11,05,52,4.80
2015,06,11,05,53,4.80
2015,06,11,05,54,8.10
2015,06,11,05,55,6.40
2015,06,11,05,56,8.10
2015,06,11,05,57,3.20
2015,06,11,05,58,3.20
2015,06,11,05,59,3.20
2015,06,11,06,00,3.20
2015,06,11,06,01,3.20
2015,06,11,06,02,3.20
2015,06,11,06,03,3.20
2015,06,11,06,04,3.20
2015,06,11,06,05,3.20
2015,06,11,06,06,3.20
2015,06,11,06,07,1.60
2015,06,11,06,09,1.60
2015,06,11,06,10,3.20
2015,06,11,06,11,3.20
2015,06,11,06,12,3.20
2015,06,11,06,13,3.20
2015,06,11,06,14,3.20
2015,06,11,06,15,3.20
2015,06,11,06,16,3.20
2015,06,11,06,17,3.20
2015,06,11,06,18,3.20
2015,06,11,06,19,3.20
2015,06,11,06,20,3.20
2015,06,11,06,21,3.20
2015,06,11,06,23,1.60
2015,06,11,06,25,1.60
2015,06,11,06,27,1.60
2015,06,11,06,28,3.20
2015,06,11,06,29,1.60
2015,06,11,06,30,3.20
2015,06,11,06,31,3.20
2015,06,11,06,32,3.20
2015,06,11,06,33,1.60
2015,06,11,06,36,1.60
2015,06,11,06,37,3.20
2015,06,11,06,38,3.20
2015,06,11,06,39,3.20
2015,06,11,06,40,1.60
2015,06,11,06,41,1.60
2015,06,11,06,42,1.60
2015,06,11,06,43,1.60
2015,06,11,06,44,1.60
2015,06,11,06,45,1.60
2015,06,11,06,46,1.60
2015,06,11,06,48,1.60
2015,06,11,06,49,1.60
2015,06,11,06,50,3.20
2015,06,11,06,51,3.20
2015,06,11,06,52,3.20
2015,06,11,06,53,3.20
2015,06,11,06,54,1.60
2015,06,11,06,55,1.60
2015,06,11,06,56,1.60
2015,06,11,06,57,1.60
2015,06,11,06,58,3.20
2015,06,11,06,59,3.20
2015,06,11,07,00,3.20
2015,06,11,07,01,3.20
2015,06,11,07,02,1.60
2015,06,11,07,03,3.20
2015,06,11,07,04,3.20
2015,06,11,07,05,4.80
2015,06,11,07,06,3.20
2015,06,11,07,07,3.20
2015,06,11,07,08,1.60
2015,06,11,07,09,1.60
2015,06,11,07,10,1.60
2015,06,11,07,11,1.60
2015,06,11,07,12,1.60
2015,06,11,07,13,3.20
2015,06,11,07,14,3.20
2015,06,11,07,15,3.20
2015,06,11,07,16,3.20
2015,06,11,07,17,1.60
2015,06,11,07,19,1.60
2015,06,11,07,20,3.20
2015,06,11,07,21,4.80
2015,06,11,07,22,3.20
2015,06,11,07,23,4.80
2015,06,11,07,24,3.20
2015,06,11,07,25,1.60
2015,06,11,07,26,1.60
2015,06,11,07,27,1.60
2015,06,11,07,28,1.60
2015,06,11,07,29,3.20
2015,06,11,07,30,3.20
2015,06,11,07,31,4.80
2015,06,11,07,32,6.40
2015,06,11,07,33,4.80
2015,06,11,07,34,4.80
2015,06,11,07,35,4.80
2015,06,11,07,36,6.40
2015,06,11,07,37,4.80
2015,06,11,07,38,6.40
2015,06,11,07,39,6.40
2015,06,11,07,40,4.80
2015,06,11,07,41,6.40
2015,06,11,07,42,9.60
2015,06,11,07,43,11.30
2015,06,11,07,44,9.60
2015,06,11,07,45,4.80
2015,06,11,07,46,4.80
2015,06,11,07,47,6.40
2015,06,11,07,48,4.80
2015,06,11,07,49,4.80
2015,06,11,07,50,4.80
2015,06,11,07,51,3.20
2015,06,11,07,52,6.40
2015,06,11,07,53,4.80
2015,06,11,07,54,1.60
2015,06,11,07,55,1.60
2015,06,11,07,56,4.80
2015,06,11,07,57,6.40
2015,06,11,07,58,1.60
2015,06,11,07,59,1.60
2015,06,11,08,05,3.20
2015,06,11,08,06,3.20
2015,06,11,08,07,1.60
2015,06,11,08,08,1.60
2015,06,11,08,09,3.20
2015,06,11,08,10,4.80
2015,06,11,08,11,3.20
2015,06,11,08,12,4.80
2015,06,11,08,13,3.20
2015,06,11,08,14,1.60
2015,06,11,08,15,1.60
2015,06,11,08,16,3.20
2015,06,11,08,17,4.80
2015,06,11,08,18,3.20
2015,06,11,08,19,9.60
2015,06,11,08,20,6.40
2015,06,11,08,21,4.80
2015,06,11,08,22,6.40
2015,06,11,08,23,6.40
2015,06,11,08,24,4.80
2015,06,11,08,25,4.80
2015,06,11,08,26,3.20
2015,06,11,08,27,4.80
2015,06,11,08,28,9.60
2015,06,11,08,29,6.40
2015,06,11,08,30,8.10
2015,06,11,08,31,9.60
2015,06,11,08,32,6.40
2015,06,11,08,33,6.40
2015,06,11,08,34,4.80
2015,06,11,08,35,9.60
2015,06,11,08,36,6.40
2015,06,11,08,37,11.30
2015,06,11,08,38,12.90
2015,06,11,08,39,9.60
2015,06,11,08,40,8.10
2015,06,11,08,41,6.40
2015,06,11,08,42,6.40
2015,06,11,08,43,9.60
2015,06,11,08,44,6.40
2015,06,11,08,45,4.80
2015,06,11,08,46,4.80
2015,06,11,08,47,11.30
2015,06,11,08,48,8.10
2015,06,11,08,49,4.80
2015,06,11,08,50,6.40
2015,06,11,08,51,14.50
2015,06,11,08,52,20.90
2015,06,11,08,53,17.70
2015,06,11,08,54,14.50
2015,06,11,08,55,8.10
2015,06,11,08,56,19.30
2015,06,11,08,57,17.70
2015,06,11,08,58,12.90
2015,06,11,08,59,16.10
2015,06,11,09,00,14.50
2015,06,11,09,01,6.40
2015,06,11,09,02,11.30
2015,06,11,09,03,6.40
2015,06,11,09,04,19.30
2015,06,11,09,05,11.30
2015,06,11,09,06,4.80
2015,06,11,09,07,8.10
2015,06,11,09,08,14.50
2015,06,11,09,09,12.90
2015,06,11,09,10,6.40
2015,06,11,09,11,14.50
2015,06,11,09,12,17.70
2015,06,11,09,13,6.40
2015,06,11,09,14,17.70
2015,06,11,09,15,8.10
2015,06,11,09,16,4.80
2015,06,11,09,17,19.30
2015,06,11,09,18,11.30
2015,06,11,09,19,8.10
2015,06,11,09,20,8.10
2015,06,11,09,21,11.30
2015,06,11,09,22,16.10
2015,06,11,09,23,6.40
2015,06,11,09,24,11.30
2015,06,11,09,25,11.30
2015,06,11,09,26,17.70
2015,06,11,09,27,19.30
2015,06,11,09,28,14.50
2015,06,11,09,29,16.10
2015,06,11,09,30,8.10
2015,06,11,09,31,3.20
2015,06,11,09,32,9.60
2015,06,11,09,33,9.60
2015,06,11,09,34,9.60
2015,06,11,09,35,8.10
2015,06,11,09,36,14.50
2015,06,11,09,37,14.50
2015,06,11,09,38,12.90
2015,06,11,09,39,14.50
2015,06,11,09,40,12.90
2015,06,11,09,41,17.70
2015,06,11,09,42,12.90
2015,06,11,09,43,17.70
2015,06,11,09,44,9.60
2015,06,11,09,45,20.90
2015,06,11,09,46,16.10
2015,06,11,09,47,16.10
2015,06,11,09,48,12.90
2015,06,11,09,49,11.30
2015,06,11,09,50,8.10
2015,06,11,09,51,14.50
2015,06,11,09,52,14.50
2015,06,11,09,53,17.70
2015,06,11,09,54,14.50
2015,06,11,09,55,19.30
2015,06,11,09,56,11.30
2015,06,11,09,57,12.90
2015,06,11,09,58,12.90
2015,06,11,09,59,12.90
2015,06,11,10,00,19.30
2015,06,11,10,01,6.40
2015,06,11,10,02,17.70
2015,06,11,10,03,16.10
2015,06,11,10,04,19.30
2015,06,11,10,05,22.50
2015,06,11,10,06,20.90
2015,06,11,10,07,11.30
2015,06,11,10,08,17.70
2015,06,11,10,09,14.50
2015,06,11,10,10,19.30
2015,06,11,10,11,9.60
2015,06,11,10,12,16.10
2015,06,11,10,13,11.30
2015,06,11,10,14,12.90
2015,06,11,10,15,17.70
2015,06,11,10,16,22.50
2015,06,11,10,17,8.10
2015,06,11,10,18,11.30
2015,06,11,10,19,12.90
2015,06,11,10,20,16.10
2015,06,11,10,21,8.10
2015,06,11,10,22,14.50
2015,06,11,10,23,11.30
2015,06,11,10,24,3.20
2015,06,11,10,25,8.10
2015,06,11,10,26,4.80
2015,06,11,10,27,9.60
2015,06,11,10,28,8.10
2015,06,11,10,29,14.50
2015,06,11,10,30,9.60
2015,06,11,10,31,8.10
2015,06,11,10,32,4.80
2015,06,11,10,33,12.90
2015,06,11,10,34,12.90
2015,06,11,10,35,9.60
2015,06,11,10,36,12.90
2015,06,11,10,37,11.30
2015,06,11,10,38,11.30
2015,06,11,10,39,9.60
2015,06,11,10,40,11.30
2015,06,11,10,41,11.30
2015,06,11,10,42,11.30
2015,06,11,10,43,6.40
2015,06,11,10,44,4.80
2015,06,11,10,45,3.20
2015,06,11,10,46,12.90
2015,06,11,10,47,4.80
2015,06,11,10,48,9.60
2015,06,11,10,49,14.50
2015,06,11,10,50,12.90
2015,06,11,10,51,6.40
2015,06,11,10,52,14.50
2015,06,11,10,53,12.90
2015,06,11,10,54,11.30
2015,06,11,10,55,8.10
2015,06,11,10,56,12.90
2015,06,11,10,57,24.20
2015,06,11,10,58,19.30
2015,06,11,10,59,17.70
2015,06,11,11,00,20.90
2015,06,11,11,01,14.50
2015,06,11,11,02,22.50
2015,06,11,11,03,20.90
2015,06,11,11,04,25.70
2015,06,11,11,05,25.70
2015,06,11,11,06,17.70
2015,06,11,11,07,25.70
2015,06,11,11,08,20.90
2015,06,11,11,09,17.70
2015,06,11,11,10,14.50
2015,06,11,11,11,9.60
2015,06,11,11,12,12.90
2015,06,11,11,13,24.20
2015,06,11,11,14,17.70
2015,06,11,11,15,14.50
2015,06,11,11,16,22.50
2015,06,11,11,17,17.70
2015,06,11,11,18,16.10
2015,06,11,11,19,19.30
2015,06,11,11,20,25.70
2015,06,11,11,21,19.30
2015,06,11,11,22,16.10
2015,06,11,11,23,14.50
2015,06,11,11,24,19.30
2015,06,11,11,25,22.50
2015,06,11,11,26,19.30
2015,06,11,11,27,19.30
2015,06,11,11,28,17.70
2015,06,11,11,29,20.90
2015,06,11,11,30,17.70
2015,06,11,11,31,17.70
2015,06,11,11,32,16.10
2015,06,11,11,33,16.10
2015,06,11,11,34,17.70
2015,06,11,11,35,12.90
2015,06,11,11,36,17.70
2015,06,11,11,37,12.90
2015,06,11,11,38,19.30
2015,06,11,11,39,20.90
2015,06,11,11,40,14.50
2015,06,11,11,41,14.50
2015,06,11,11,42,17.70
2015,06,11,11,43,14.50
2015,06,11,11,44,16.10
2015,06,11,11,45,12.90
2015,06,11,11,46,11.30
2015,06,11,11,47,20.90
2015,06,11,11,48,12.90
2015,06,11,11,49,17.70
2015,06,11,11,50,22.50
2015,06,11,11,51,12.90
2015,06,11,11,52,8.10
2015,06,11,11,53,20.90
2015,06,11,11,54,16.10
2015,06,11,11,55,17.70
2015,06,11,11,56,20.90
2015,06,11,11,57,20.90
2015,06,11,11,58,16.10
2015,06,11,11,59,16.10
2015,06,11,12,00,25.70
2015,06,11,12,01,22.50
2015,06,11,12,02,11.30
2015,06,11,12,03,25.70
2015,06,11,12,04,19.30
2015,06,11,12,05,12.90
2015,06,11,12,06,16.10
2015,06,11,12,07,22.50
2015,06,11,12,08,25.70
2015,06,11,12,09,19.30
2015,06,11,12,10,24.20
2015,06,11,12,11,24.20
2015,06,11,12,12,24.20
2015,06,11,12,13,20.90
2015,06,11,12,14,16.10
2015,06,11,12,15,19.30
2015,06,11,12,16,29.00
2015,06,11,12,17,14.50
2015,06,11,12,18,27.40
2015,06,11,12,19,29.00
2015,06,11,12,20,17.70
2015,06,11,12,21,19.30
2015,06,11,12,22,27.40
2015,06,11,12,23,22.50
2015,06,11,12,24,20.90
2015,06,11,12,25,37.00
2015,06,11,12,26,32.20
2015,06,11,12,27,24.20
2015,06,11,12,28,25.70
2015,06,11,12,29,20.90
2015,06,11,12,30,22.50
2015,06,11,12,31,22.50
2015,06,11,12,32,22.50
2015,06,11,12,33,17.70
2015,06,11,12,34,22.50
2015,06,11,12,35,30.60
2015,06,11,12,36,25.70
2015,06,11,12,37,30.60
2015,06,11,12,38,19.30
2015,06,11,12,39,24.20
2015,06,11,12,40,19.30
2015,06,11,12,41,19.30
2015,06,11,12,42,14.50
2015,06,11,12,43,22.50
2015,06,11,12,44,20.90
2015,06,11,12,45,20.90
2015,06,11,12,46,22.50
2015,06,11,12,47,19.30
2015,06,11,12,48,20.90
2015,06,11,12,49,25.70
2015,06,11,12,50,20.90
2015,06,11,12,51,24.20
2015,06,11,12,52,19.30
2015,06,11,12,53,24.20
2015,06,11,12,54,25.70
2015,06,11,12,55,22.50
2015,06,11,12,56,27.40
2015,06,11,12,57,20.90
2015,06,11,12,58,22.50
2015,06,11,12,59,20.90
2015,06,11,13,00,17.70
2015,06,11,13,01,20.90
2015,06,11,13,02,20.90
2015,06,11,13,03,25.70
2015,06,11,13,04,27.40
2015,06,11,13,05,27.40
2015,06,11,13,06,25.70
2015,06,11,13,07,25.70
2015,06,11,13,08,25.70
2015,06,11,13,09,22.50
2015,06,11,13,10,20.90
2015,06,11,13,11,14.50
2015,06,11,13,12,17.70
2015,06,11,13,13,22.50
2015,06,11,13,14,41.80
2015,06,11,13,15,29.00
2015,06,11,13,16,16.10
2015,06,11,13,17,24.20
2015,06,11,13,18,14.50
2015,06,11,13,19,11.30
2015,06,11,13,20,22.50
2015,06,11,13,21,12.90
2015,06,11,13,22,33.80
2015,06,11,13,23,24.20
2015,06,11,13,24,20.90
2015,06,11,13,25,19.30
2015,06,11,13,26,19.30
2015,06,11,13,27,32.20
2015,06,11,13,28,20.90
2015,06,11,13,29,19.30
2015,06,11,13,30,27.40
2015,06,11,13,31,24.20
2015,06,11,13,32,16.10
2015,06,11,13,33,14.50
2015,06,11,13,34,29.00
2015,06,11,13,35,17.70
2015,06,11,13,36,20.90
2015,06,11,13,37,24.20
2015,06,11,13,38,29.00
2015,06,11,13,39,20.90
2015,06,11,13,40,25.70
2015,06,11,13,41,24.20
2015,06,11,13,42,24.20
2015,06,11,13,43,20.90
2015,06,11,13,44,24.20
2015,06,11,13,45,32.20
2015,06,11,13,46,24.20
2015,06,11,13,47,20.90
2015,06,11,13,48,32.20
2015,06,11,13,49,32.20
2015,06,11,13,50,22.50
2015,06,11,13,51,22.50
2015,06,11,13,52,38.60
2015,06,11,13,53,35.40
2015,06,11,13,54,40.20
2015,06,11,13,55,35.40
2015,06,11,13,56,30.60
2015,06,11,13,57,41.80
2015,06,11,13,58,40.20
2015,06,11,13,59,46.70
2015,06,11,14,00,45.10
2015,06,11,14,01,22.50
2015,06,11,14,02,40.20
2015,06,11,14,03,27.40
2015,06,11,14,04,27.40
2015,06,11,14,05,25.70
2015,06,11,14,06,38.60
2015,06,11,14,07,43.50
2015,06,11,14,08,33.80
2015,06,11,14,09,29.00
2015,06,11,14,10,29.00
2015,06,11,14,11,30.60
2015,06,11,14,12,27.40
2015,06,11,14,13,41.80
2015,06,11,14,14,27.40
2015,06,11,14,15,33.80
2015,06,11,14,16,41.80
2015,06,11,14,17,35.40
2015,06,11,14,18,35.40
2015,06,11,14,19,37.00
2015,06,11,14,20,35.40
2015,06,11,14,21,29.00
2015,06,11,14,22,33.80
2015,06,11,14,23,33.80
2015,06,11,14,24,30.60
2015,06,11,14,25,27.40
2015,06,11,14,26,29.00
2015,06,11,14,27,32.20
2015,06,11,14,28,37.00
2015,06,11,14,29,25.70
2015,06,11,14,30,22.50
2015,06,11,14,31,29.00
2015,06,11,14,32,27.40
2015,06,11,14,33,22.50
2015,06,11,14,34,37.00
2015,06,11,14,35,41.80
2015,06,11,14,36,38.60
2015,06,11,14,37,29.00
2015,06,11,14,38,33.80
2015,06,11,14,39,33.80
2015,06,11,14,40,35.40
2015,06,11,14,41,35.40
2015,06,11,14,42,30.60
2015,06,11,14,43,20.90
2015,06,11,14,44,29.00
2015,06,11,14,45,35.40
2015,06,11,14,46,29.00
2015,06,11,14,47,19.30
2015,06,11,14,48,27.40
2015,06,11,14,49,32.20
2015,06,11,14,50,33.80
2015,06,11,14,51,30.60
2015,06,11,14,52,33.80
2015,06,11,14,53,29.00
2015,06,11,14,54,35.40
2015,06,11,14,55,30.60
2015,06,11,14,56,24.20
2015,06,11,14,57,29.00
2015,06,11,14,58,29.00
2015,06,11,14,59,22.50
2015,06,11,15,00,24.20
2015,06,11,15,01,37.00
2015,06,11,15,02,27.40
2015,06,11,15,03,20.90
2015,06,11,15,04,17.70
2015,06,11,15,05,20.90
2015,06,11,15,06,22.50
2015,06,11,15,07,25.70
2015,06,11,15,08,29.00
2015,06,11,15,09,25.70
2015,06,11,15,10,24.20
2015,06,11,15,11,22.50
2015,06,11,15,12,27.40
2015,06,11,15,13,27.40
2015,06,11,15,14,19.30
2015,06,11,15,15,29.00
2015,06,11,15,16,35.40
2015,06,11,15,17,27.40
2015,06,11,15,18,20.90
2015,06,11,15,19,25.70
2015,06,11,15,20,32.20
2015,06,11,15,21,24.20
2015,06,11,15,22,46.70
2015,06,11,15,23,24.20
2015,06,11,15,24,25.70
2015,06,11,15,25,30.60
2015,06,11,15,26,33.80
2015,06,11,15,27,16.10
2015,06,11,15,28,30.60
2015,06,11,15,29,30.60
2015,06,11,15,30,33.80
2015,06,11,15,31,22.50
2015,06,11,15,32,20.90
2015,06,11,15,33,25.70
2015,06,11,15,34,24.20
2015,06,11,15,35,17.70
2015,06,11,15,36,24.20
2015,06,11,15,37,22.50
2015,06,11,15,38,24.20
2015,06,11,15,39,29.00
2015,06,11,15,40,32.20
2015,06,11,15,41,33.80
2015,06,11,15,42,35.40
2015,06,11,15,43,27.40
2015,06,11,15,44,30.60
2015,06,11,15,45,29.00
2015,06,11,15,46,32.20
2015,06,11,15,47,27.40
2015,06,11,15,48,25.70
2015,06,11,15,49,19.30
2015,06,11,15,50,25.70
2015,06,11,15,51,25.70
2015,06,11,15,52,22.50
2015,06,11,15,53,25.70
2015,06,11,15,54,29.00
2015,06,11,15,55,25.70
2015,06,11,15,56,29.00
2015,06,11,15,57,30.60
2015,06,11,15,58,35.40
2015,06,11,15,59,25.70
2015,06,11,16,00,29.00
2015,06,11,16,01,30.60
2015,06,11,16,02,27.40
2015,06,11,16,03,27.40
2015,06,11,16,04,24.20
2015,06,11,16,05,29.00
2015,06,11,16,06,33.80
2015,06,11,16,07,33.80
2015,06,11,16,08,29.00
2015,06,11,16,09,33.80
2015,06,11,16,10,27.40
2015,06,11,16,11,25.70
2015,06,11,16,12,25.70
2015,06,11,16,13,35.40
2015,06,11,16,14,32.20
2015,06,11,16,15,33.80
2015,06,11,16,16,30.60
2015,06,11,16,17,30.60
2015,06,11,16,18,35.40
2015,06,11,16,19,14.50
2015,06,11,16,20,25.70
2015,06,11,16,21,41.80
2015,06,11,16,22,38.60
2015,06,11,16,23,33.80
2015,06,11,16,24,27.40
2015,06,11,16,25,37.00
2015,06,11,16,26,33.80
2015,06,11,16,27,35.40
2015,06,11,16,28,27.40
2015,06,11,16,29,25.70
2015,06,11,16,30,16.10
2015,06,11,16,31,33.80
2015,06,11,16,32,30.60
2015,06,11,16,33,27.40
2015,06,11,16,34,27.40
2015,06,11,16,35,32.20
2015,06,11,16,36,32.20
2015,06,11,16,37,29.00
2015,06,11,16,38,27.40
2015,06,11,16,39,24.20
2015,06,11,16,40,19.30
2015,06,11,16,41,27.40
2015,06,11,16,42,29.00
2015,06,11,16,43,16.10
2015,06,11,16,44,24.20
2015,06,11,16,45,29.00
2015,06,11,16,46,22.50
2015,06,11,16,47,19.30
2015,06,11,16,48,20.90
2015,06,11,16,49,25.70
2015,06,11,16,50,27.40
2015,06,11,16,51,27.40
2015,06,11,16,52,30.60
2015,06,11,16,53,22.50
2015,06,11,16,54,22.50
2015,06,11,16,55,37.00
2015,06,11,16,56,22.50
2015,06,11,16,57,19.30
2015,06,11,16,58,35.40
2015,06,11,16,59,24.20
2015,06,11,17,00,38.60
2015,06,11,17,01,33.80
2015,06,11,17,02,41.80
2015,06,11,17,03,35.40
2015,06,11,17,04,27.40
2015,06,11,17,05,33.80
2015,06,11,17,06,33.80
2015,06,11,17,07,51.50
2015,06,11,17,08,38.60
2015,06,11,17,09,33.80
2015,06,11,17,10,43.50
2015,06,11,17,11,38.60
2015,06,11,17,12,17.70
2015,06,11,17,13,37.00
2015,06,11,17,14,25.70
2015,06,11,17,15,32.20
2015,06,11,17,16,29.00
2015,06,11,17,17,24.20
2015,06,11,17,18,20.90
2015,06,11,17,19,29.00
2015,06,11,17,20,20.90
2015,06,11,17,21,27.40
2015,06,11,17,22,24.20
2015,06,11,17,23,27.40
2015,06,11,17,24,27.40
2015,06,11,17,25,33.80
2015,06,11,17,26,37.00
2015,06,11,17,27,38.60
2015,06,11,17,28,17.70
2015,06,11,17,29,27.40
2015,06,11,17,30,25.70
2015,06,11,17,31,25.70
2015,06,11,17,32,35.40
2015,06,11,17,33,24.20
2015,06,11,17,34,25.70
2015,06,11,17,35,27.40
2015,06,11,17,36,22.50
2015,06,11,17,37,22.50
2015,06,11,17,38,12.90
2015,06,11,17,39,24.20
2015,06,11,17,40,27.40
2015,06,11,17,41,25.70
2015,06,11,17,42,22.50
2015,06,11,17,43,33.80
2015,06,11,17,44,27.40
2015,06,11,17,45,16.10
2015,06,11,17,46,17.70
2015,06,11,17,47,20.90
2015,06,11,17,48,25.70
2015,06,11,17,49,25.70
2015,06,11,17,50,24.20
2015,06,11,17,51,37.00
2015,06,11,17,52,17.70
2015,06,11,17,53,19.30
2015,06,11,17,54,24.20
2015,06,11,17,55,12.90
2015,06,11,17,56,24.20
2015,06,11,17,57,14.50
2015,06,11,17,58,20.90
2015,06,11,17,59,19.30
2015,06,11,18,00,24.20
2015,06,11,18,01,19.30
2015,06,11,18,02,19.30
2015,06,11,18,03,17.70
2015,06,11,18,04,24.20
2015,06,11,18,05,20.90
2015,06,11,18,06,9.60
2015,06,11,18,07,17.70
2015,06,11,18,08,14.50
2015,06,11,18,09,20.90
2015,06,11,18,10,14.50
2015,06,11,18,11,24.20
2015,06,11,18,12,17.70
2015,06,11,18,13,20.90
2015,06,11,18,14,17.70
2015,06,11,18,15,20.90
2015,06,11,18,16,25.70
2015,06,11,18,17,19.30
2015,06,11,18,18,29.00
2015,06,11,18,19,24.20
2015,06,11,18,20,24.20
2015,06,11,18,21,24.20
2015,06,11,18,22,17.70
2015,06,11,18,23,27.40
2015,06,11,18,24,20.90
2015,06,11,18,25,20.90
2015,06,11,18,26,29.00
2015,06,11,18,27,22.50
2015,06,11,18,28,35.40
2015,06,11,18,29,17.70
2015,06,11,18,30,40.20
2015,06,11,18,31,35.40
2015,06,11,18,32,37.00
2015,06,11,18,33,29.00
2015,06,11,18,34,32.20
2015,06,11,18,35,35.40
2015,06,11,18,36,32.20
2015,06,11,18,37,35.40
2015,06,11,18,38,33.80
2015,06,11,18,39,32.20
2015,06,11,18,40,32.20
2015,06,11,18,41,30.60
2015,06,11,18,42,27.40
2015,06,11,18,43,25.70
2015,06,11,18,44,29.00
2015,06,11,18,45,30.60
2015,06,11,18,46,27.40
2015,06,11,18,47,29.00
2015,06,11,18,48,27.40
2015,06,11,18,49,20.90
2015,06,11,18,50,29.00
2015,06,11,18,51,16.10
2015,06,11,18,52,29.00
2015,06,11,18,53,22.50
2015,06,11,18,54,22.50
2015,06,11,18,55,24.20
2015,06,11,18,56,22.50
2015,06,11,18,57,24.20
2015,06,11,18,58,22.50
2015,06,11,18,59,12.90
2015,06,11,19,00,29.00
2015,06,11,19,01,27.40
2015,06,11,19,02,19.30
2015,06,11,19,03,22.50
2015,06,11,19,04,30.60
2015,06,11,19,05,32.20
2015,06,11,19,06,24.20
2015,06,11,19,07,27.40
2015,06,11,19,08,40.20
2015,06,11,19,09,22.50
2015,06,11,19,10,32.20
2015,06,11,19,11,22.50
2015,06,11,19,12,25.70